{"data":{"norad_id":63796,"epoch":"2026-09-20T15:07:39.342144Z","epoch_age_seconds":138586,"freshness":"FRESH","line1":"1 63796U 25091X   26263.63031646  .00011445  00000+0  42470-3 0  9990","line2":"2 63796  43.0024  31.7916 0001320 266.6418  93.4282 15.27585896 78764","mean_motion":15.27585896,"eccentricity":0.000132,"inclination_deg":43.0024,"raan_deg":31.7916,"arg_perigee_deg":266.6418,"mean_anomaly_deg":93.4282,"bstar":0.0004247,"rev_number":7876,"period_min":94.266384873718,"perigee_km":482.1257671171,"apogee_km":483.93711558562,"semimajor_km":6861.1684413514,"source":"CELESTRAK","updated_at":"2026-09-21T09:00:35.102131Z"}}